TimeEST,TemperatureF,Dew PointF,Humidity,Sea Level PressureIn,VisibilityMPH,Wind Direction,Wind SpeedMPH,Gust SpeedMPH,PrecipitationIn,Events,Conditions,WindDirDegrees,DateUTC
12:55 AM,30.9,23.7,75,30.22,10.0,North,10.4,-,N/A,,Overcast,350,2012-11-28 05:55:00
1:55 AM,31.3,23.9,74,30.20,10.0,North,6.9,-,N/A,,Overcast,360,2012-11-28 06:55:00
2:55 AM,31.3,23.0,71,30.21,10.0,North,9.2,-,N/A,,Overcast,360,2012-11-28 07:55:00
3:55 AM,31.1,21.4,67,30.20,10.0,North,9.2,-,N/A,,Overcast,350,2012-11-28 08:55:00
4:55 AM,30.7,20.7,66,30.19,10.0,North,9.2,-,N/A,,Overcast,350,2012-11-28 09:55:00
5:55 AM,30.7,20.3,65,30.20,10.0,NNW,9.2,-,N/A,,Overcast,340,2012-11-28 10:55:00
6:37 AM,30.2,21.2,69,30.22,7.0,North,12.7,-,N/A,Snow,Light Snow,350,2012-11-28 11:37:00
6:55 AM,30.7,21.6,69,30.22,5.0,North,10.4,-,0.00,Snow,Light Snow,350,2012-11-28 11:55:00
7:55 AM,30.4,21.7,70,30.22,10.0,North,9.2,-,0.00,Snow,Light Snow,360,2012-11-28 12:55:00
8:55 AM,30.7,21.7,69,30.21,10.0,North,10.4,-,0.00,Snow,Light Snow,360,2012-11-28 13:55:00
9:55 AM,31.3,21.6,67,30.20,10.0,North,8.1,-,0.00,,Overcast,360,2012-11-28 14:55:00
10:55 AM,31.8,21.2,65,30.19,10.0,North,10.4,-,N/A,,Overcast,10,2012-11-28 15:55:00
11:16 AM,32.0,21.2,64,30.17,10.0,North,8.1,-,N/A,Snow,Light Snow,10,2012-11-28 16:16:00
11:55 AM,33.4,22.3,64,30.16,10.0,North,8.1,-,0.00,Snow,Light Snow,10,2012-11-28 16:55:00
12:33 PM,33.8,23.0,65,30.15,10.0,North,5.8,-,N/A,,Overcast,360,2012-11-28 17:33:00
12:55 PM,34.0,21.6,60,30.14,10.0,North,6.9,-,0.00,,Overcast,360,2012-11-28 17:55:00
1:55 PM,34.3,20.5,57,30.13,10.0,North,5.8,-,N/A,,Overcast,10,2012-11-28 18:55:00
2:55 PM,34.5,19.8,55,30.13,10.0,NNE,3.5,-,N/A,,Overcast,30,2012-11-28 19:55:00
3:55 PM,32.7,19.4,58,30.12,10.0,NE,3.5,-,N/A,,Mostly Cloudy,50,2012-11-28 20:55:00
4:55 PM,31.6,19.2,60,30.12,10.0,Calm,Calm,-,N/A,,Mostly Cloudy,0,2012-11-28 21:55:00
5:55 PM,30.6,20.3,66,30.14,10.0,Calm,Calm,-,N/A,,Mostly Cloudy,0,2012-11-28 22:55:00
6:55 PM,29.1,20.5,70,30.15,10.0,Calm,Calm,-,N/A,,Mostly Cloudy,0,2012-11-28 23:55:00
7:55 PM,29.5,19.9,68,30.15,10.0,Calm,Calm,-,N/A,,Mostly Cloudy,0,2012-11-29 00:55:00
8:55 PM,27.3,18.7,70,30.15,10.0,Calm,Calm,-,N/A,,Mostly Cloudy,0,2012-11-29 01:55:00
9:55 PM,24.8,18.9,78,30.13,10.0,Calm,Calm,-,N/A,,Scattered Clouds,0,2012-11-29 02:55:00
10:55 PM,25.0,18.9,78,30.13,10.0,Calm,Calm,-,N/A,,Clear,0,2012-11-29 03:55:00
11:55 PM,23.7,19.6,84,30.12,10.0,WSW,5.8,-,N/A,,Clear,250,2012-11-29 04:55:00